Regional Weather Roundup
Issued by NWS Newport/Morehead, NC

Current Version | Previous Version | Text Only | Print | Product List | Glossary On
Versions: 1 2 3 4 5 6 7 8 9 10 11 12 13 14 15 16 17 18 19 20 21 22 23 24 25 26 27 28 29 30 31 32 33 34 35 36 37 38 39 40 41 42 43 44 45 46 47 48 49 50
000
ASUS42 KMHX 210825
RWRMHX
WEATHER ROUNDUP FOR EASTERN NORTH CAROLINA
NATIONAL WEATHER SERVICE NEWPORT/MOREHEAD CITY NC
300 AM EST WED FEB 21 2018

NOTE: "FAIR" INDICATES FEW OR NO CLOUDS BELOW 12,000 FEET
WITH NO SIGNIFICANT WEATHER AND/OR OBSTRUCTIONS TO VISIBILITY

NCZ015>017-031-032-045>047-102-103-210900-
NORTH COAST

CITY           SKY/WX    TMP DP  RH WIND       PRES   REMARKS
EDENTON        FOG       63  62  97 CALM      30.46S VSB 1/2
ELIZABETH CITY CLOUDY    64  64 100 S6        30.45S
KITTY HAWK     CLOUDY   N/A N/A N/A CALM      30.45F FOG
MANTEO         FOG       58  58 100 S5        30.47S VSB 3/4

$$

NCZ045>047-081-094-103-104-210900-
CENTRAL COAST

CITY           SKY/WX    TMP DP  RH WIND       PRES   REMARKS
FRISCO         CLOUDY    64  64 100 S3        30.48S

$$

NCZ095-097-098-100-101-210900-
SOUTHERN COAST

CITY           SKY/WX    TMP DP  RH WIND       PRES   REMARKS
BEAUFORT       FAIR      64  62  93 S7        30.46F
CEDAR ISLAND   NOT AVBL
JACKSONVILLE   FAIR      67  66  97 S5        30.45F
PINEY ISLAND   NOT AVBL
WILMINGTON     FOG       58  58 100 CALM      30.45F VSB 1/4


$$

NCZ011>013-027>030-043-044-078>080-089-090>093-098-210900-
COASTAL PLAIN

CITY           SKY/WX    TMP DP  RH WIND       PRES   REMARKS
AHOSKIE        FAIR      63  63 100 S5        30.44S
CLINTON        CLOUDY    63  63 100 S3        30.44F
ELIZABETHTOWN  NOT AVBL
GOLDSBORO      FAIR      63  62  97 SE5       30.42F
GREENVILLE     CLOUDY    63  63 100 S7        30.44S FOG
HAVELOCK       NOT AVBL
KENANSVILLE    FOG       63  63 100 CALM      30.45F VSB 1/4
KINSTON        CLOUDY    64  64 100 S5        30.45S FOG
NEW BERN       FAIR      64  64 100 S5        30.47S FOG
RICHLANDS      MOCLDY    63  63 100 S5        30.45F FOG
ROCKY MOUNT    CLOUDY    63  63 100 S7        30.43F FOG
WASHINGTON     FOG       63  62  97 CALM      30.45F VSB 1/4
WHITEVILLE     FAIR      64  63  97 CALM      30.43F

$$

AMZ130-135-150-152-154-156-158-170-250-252-270-ANZ085-086-088-633-658-670-210900-
MARINE OBSERVATIONS

STATION/POSITION TIME  TEMP    WIND        PRES    WAVE   SWELL
                       AIR SEA DIR/SP/G            HT/PER HT/PER
                 (UTC) (F)     (DEG/KT/KT) (MB)    (FT/S) (FT/S)
CHESAPEAKE LIGHT NOT AVBL
64 E VA BEACH    0750   55 53  200/ 10/ 12 1032.0    3/11   3/11
DUCK             0800   63 44  190/ 10/ 14 1030.8
2 E DUCK         0800      45                N/A     3/13   2/13
OREGON INLET     0754   59 58  180/  7/  9 1031.6
13E OREGON INLT  0748      46                N/A     4/12   3/12
HATTERAS CG      0800   65 59  180/  4/  6 1031.8
DIAMOND BUOY     0810   72 71  180/ 12/ 14 1032.2
CAPE LOOKOUT     0800          190/  8/  9 1031.8
BEAUFORT LAB     0800   60 56  180/  4/  5 1031.7
30 SE NEW RVR IN 0708   70 69  180/  6/ 10 1031.7
30 SE NEW RVR IN 0800      69                N/A     4/ 6   2/13
27 SE WRIGHTSVLE 0708   70 69  180/ 10/ 16 1031.6
5 SE WRIGHTSVLE  NOT AVBL
225 S CAPE HAT   0750   72 74  130/ 12/ 16 1032.2    5/11   5/11
41 SE CHARLESTON 0810   71 68  140/  8/  8 1029.9

$$




USA.gov is the U.S. government's official web portal to all federal, state and local government web resources and services.